FW2346 Weather Reports


Display with metric or nautical units.
time (UTC)temp
F
wind
direction
speed
MPH
gust
MPH
rain 1hr
in
rain 24hr
in
rain mn
in
humidity
%
barometer
mb
20260505054505 55 342 1.0 2.0 0.00 0.00 0.00 68 1014.6
20260505053004 55 340 0.0 2.0 0.00 0.00 0.00 68 1014.4
20260505051501 55 345 0.0 5.0 0.00 0.00 0.00 67 1014.3
20260505041540 55 18 1.0 3.0 0.00 0.00 0.00 68 1014.2
20260505034510 56 35 2.0 6.0 0.00 0.00 0.00 66 1014.2
20260505031509 56 353 1.0 3.0 0.00 0.00 0.00 67 1014.2
20260505030001 56 356 0.0 3.0 0.00 0.00 0.00 67 1014.2
20260505023026 56 352 1.0 3.0 0.00 0.00 0.00 68 1014.2
20260505020157 57 345 1.0 3.0 0.00 0.00 0.00 67 1014.3
20260505014513 57 349 2.0 4.0 0.00 0.00 0.00 66 1014.3
20260505010014 57 314 1.0 4.0 0.00 0.00 0.00 67 1014.7
20260505004505 57 330 2.0 5.0 0.00 0.00 0.00 67 1014.6
20260505003027 57 317 2.0 5.0 0.00 0.00 0.00 66 1014.7
20260505000002 58 306 2.0 5.0 0.00 0.00 0.00 65 1014.9
20260504230016 59 311 2.0 6.0 0.00 0.00 0.00 64 1014.9
20260504213024 60 322 0.0 2.0 0.00 0.00 0.00 74 1014.7
20260504204512 61 262 3.0 6.0 0.00 0.00 0.00 70 1014.4
20260504201505 62 275 4.0 8.0 0.00 0.00 0.00 67 1014.2
20260504200004 62 248 2.0 6.0 0.00 0.00 0.00 66 1014.1
20260504183008 67 280 6.0 16.0 0.00 0.00 0.00 58 1013.2
20260504181503 68 274 4.0 15.0 0.00 0.00 0.00 57 1013.2
20260504180004 69 293 7.0 16.0 0.00 0.00 0.00 56 1013.1
20260504174501 69 262 8.0 14.0 0.00 0.00 0.00 55 1013.0